Wind_Speed
13 13 13 13 13 13 13 13 12 12 12 12 13 13 13 13 13 13 12 11 10 10 9 8 7 7 7 7 7 6 6 6 6 6 7 8 8 9 9 10 11 12
13 13 13 14 13 13 13 13 13 12 12 13 13 13 13 13 12 12 12 11 10 9 8 7 7 7 6 6 6 6 5 4 5 5 6 6 7 8 8 8 9 9
12 12 12 13 13 13 13 13 13 13 13 13 13 13 13 12 12 12 12 11 11 10 9 8 8 7 7 6 6 6 5 4 4 5 5 6 6 7 7 7 7 8
11 12 12 12 13 13 13 13 13 13 13 13 13 13 13 13 12 12 12 12 11 10 10 9 9 8 8 7 7 6 6 5 4 5 5 5 6 7 6 6 6 7
11 11 12 12 13 13 13 13 13 13 13 13 13 13 13 13 13 13 12 12 12 11 10 10 10 10 9 9 8 8 7 6 5 5 5 5 6 7 6 6 6 6
12 12 12 12 12 12 12 13 13 13 13 13 13 12 12 13 13 13 12 12 12 12 11 11 10 10 10 10 9 9 9 8 7 6 6 6 6 7 6 7 7 7
12 12 12 12 12 12 12 12 13 13 13 13 13 13 13 13 13 13 13 12 12 12 11 11 11 11 11 10 10 10 10 9 9 8 8 7 7 7 7 7 8 8
13 13 13 13 12 12 12 12 12 12 12 12 13 13 13 13 13 13 12 13 12 12 12 12 12 11 11 11 11 11 10 10 10 9 8 8 7 7 7 7 7 7
14 14 14 13 13 13 13 12 12 12 12 11 12 13 13 13 13 13 13 13 12 12 13 12 12 12 12 12 11 11 11 11 11 10 9 9 8 8 8 7 7 7
15 14 14 14 14 14 13 13 13 13 12 12 12 13 13 14 14 13 13 13 13 13 12 12 12 12 12 12 12 11 11 11 11 10 10 10 9 8 8 8 8 8
16 15 15 14 14 14 14 14 14 14 14 16 16 16 16 16 15 14 12 12 12 12 12 12 13 12 12 12 12 11 11 11 11 10 10 10 9 9 9 8 8 8
17 17 16 15 15 15 14 15 15 15 17 17 15 14 14 14 14 14 13 12 12 12 12 13 13 12 12 12 12 12 11 10 10 10 10 9 9 9 9 8 9 9
17 17 17 17 16 16 16 15 16 17 17 16 14 14 14 13 13 13 12 12 12 11 11 12 13 12 12 11 11 11 11 10 10 10 10 10 9 10 10 10 11 11
18 18 18 19 18 18 18 17 17 17 16 15 15 15 14 14 14 13 12 12 12 11 12 13 14 12 11 11 11 11 11 11 11 11 10 10 11 12 12 13 13 10
17 17 18 18 19 19 18 17 18 18 16 15 14 14 15 15 15 14 14 13 13 14 15 15 14 11 11 12 12 11 12 12 12 12 12 12 13 14 14 14 12 10
16 16 17 17 18 18 18 18 19 18 17 16 16 15 15 15 14 14 15 14 14 15 15 15 14 12 12 13 13 12 13 13 12 13 14 14 15 16 15 14 13 12
17 17 17 17 17 17 18 19 19 19 18 18 17 16 15 14 14 15 15 15 14 14 14 14 13 12 12 13 13 14 14 14 13 14 15 15 16 16 16 15 14 14
18 17 17 17 17 18 18 18 19 19 19 19 18 17 16 15 16 16 16 16 15 14 14 14 13 12 13 13 13 14 14 14 14 15 15 16 16 16 16 16 16 15
21 19 18 18 18 18 19 19 19 19 19 19 19 18 18 18 18 18 17 17 17 16 15 14 13 13 14 14 13 14 14 15 15 16 16 16 16 16 17 17 17 17
24 22 21 19 17 18 18 19 20 20 20 20 20 19 19 19 20 19 19 18 18 17 17 16 15 15 15 15 15 14 15 15 16 17 17 17 17 17 18 18 18 18
26 25 23 19 17 18 19 19 20 20 21 22 22 21 20 20 20 20 20 19 19 19 19 18 18 18 18 17 17 17 17 17 18 19 19 19 19 19 19 18 18 19
27 27 26 24 21 21 20 21 21 21 21 23 24 24 23 22 22 21 21 21 21 22 22 21 21 21 21 20 20 20 20 21 21 22 21 21 21 21 21 21 21 21
27 28 31 30 26 24 23 23 23 22 22 23 25 25 24 23 23 23 23 23 24 25 26 26 25 25 24 24 23 23 23 23 23 24 24 24 24 24 24 24 24 24
28 31 33 31 28 27 28 27 26 25 24 24 25 25 25 24 24 23 23 23 24 25 27 28 28 28 27 27 26 26 26 26 26 26 26 27 27 27 26 26 26 25
29 31 30 29 30 31 31 30 28 27 27 27 27 27 26 26 25 24 24 24 24 26 27 28 29 29 28 28 27 27 27 28 28 28 29 29 29 28 28 27 27 27
27 27 25 23 25 28 30 30 28 27 28 28 29 29 28 27 26 26 26 26 25 27 29 30 30 30 29 28 28 28 29 29 29 30 30 30 30 29 29 28 27 27
Wind_Direction
189 188 184 180 178 176 176 174 174 174 172 171 171 171 172 173 175 178 178 180 181 182 186 191 188 184 182 175 172 178 180 173 172 179 188 194 194 197 200 204 205 207
191 195 191 185 182 181 180 180 180 181 180 178 178 177 177 177 179 180 181 183 186 189 192 195 194 191 188 182 178 182 184 179 176 180 191 197 197 200 207 212 213 214
191 195 195 191 186 184 184 185 186 186 186 186 184 182 182 183 185 187 188 190 192 194 194 194 197 198 197 196 194 188 185 189 190 188 194 197 199 203 208 212 215 218
191 191 193 194 192 190 190 190 191 191 190 191 190 189 188 188 189 190 190 192 193 193 193 193 197 200 202 203 203 197 191 195 201 200 203 205 205 209 211 214 216 212
193 192 192 194 196 196 195 194 195 196 195 195 195 195 194 192 192 193 192 192 192 191 190 192 194 197 201 204 204 202 201 203 203 204 212 216 216 219 217 220 228 223
193 193 192 193 195 198 198 198 199 199 198 198 198 198 197 195 195 195 195 195 195 193 191 191 194 197 201 204 205 206 208 210 211 215 223 226 226 228 224 222 228 233
192 192 192 191 192 196 197 199 200 200 201 201 200 200 201 200 199 198 198 198 199 199 197 195 195 199 203 205 206 207 209 213 217 223 228 230 230 230 228 225 225 227
192 193 194 191 190 194 196 197 199 199 202 204 202 203 204 204 203 202 203 202 200 201 202 202 200 202 206 208 208 208 208 212 219 223 224 224 227 231 230 227 226 228
197 196 196 195 193 196 197 196 197 199 202 205 207 206 206 205 204 205 206 204 203 204 204 203 203 203 207 209 209 209 209 212 218 221 222 223 229 235 235 233 231 234
200 200 201 199 197 200 200 198 198 199 202 206 210 210 207 206 206 206 207 205 203 205 205 205 205 205 208 209 210 211 212 213 216 219 221 223 229 234 236 237 236 240
203 202 204 204 203 204 204 205 205 203 207 210 210 210 209 208 204 201 205 210 208 205 203 206 208 209 211 214 214 214 213 212 213 215 219 220 222 226 228 232 235 238
206 205 206 207 209 210 209 211 212 211 216 218 216 216 217 218 213 202 198 203 209 210 208 208 209 211 215 218 220 220 218 215 212 213 219 222 223 224 225 229 231 232
207 208 210 210 211 214 216 217 219 220 221 222 224 225 224 226 227 219 208 202 206 216 219 217 214 211 213 218 221 224 224 221 218 217 221 226 227 229 228 227 228 225
208 210 212 214 213 215 219 219 223 229 227 223 227 231 229 230 230 229 224 215 214 222 226 226 222 215 217 223 223 225 228 229 230 229 229 229 231 233 233 236 241 241
212 216 217 218 218 219 223 225 226 232 233 230 232 234 233 234 233 231 228 221 221 228 228 230 232 227 226 230 230 229 230 234 236 237 238 236 235 239 241 244 251 256
219 221 222 223 224 224 226 229 231 233 235 235 236 235 235 236 234 234 233 228 229 235 233 233 237 234 231 233 236 237 237 238 240 243 246 245 243 246 250 251 255 258
225 225 226 226 228 229 228 231 234 236 237 238 237 238 241 241 238 238 239 236 236 241 241 238 237 238 238 239 240 243 244 244 244 245 249 251 251 253 256 258 258 258
228 225 229 230 230 233 233 235 237 238 240 241 240 240 241 242 242 242 242 241 240 240 240 241 241 241 244 246 246 247 250 251 250 248 249 252 254 256 259 261 260 258
229 223 224 228 232 235 237 240 241 241 243 244 242 241 240 239 240 241 241 242 243 241 240 241 242 241 242 246 249 251 253 254 254 254 254 256 258 259 260 262 264 264
236 229 221 220 226 236 241 244 245 244 245 246 246 245 243 241 241 241 242 242 243 244 243 242 241 240 240 243 246 250 253 253 254 255 256 258 260 261 262 263 265 266
237 235 230 225 227 236 241 243 245 247 246 246 247 247 247 248 248 248 249 249 249 250 249 246 244 244 242 242 244 248 250 251 252 254 255 257 258 259 260 261 263 265
233 233 234 231 228 233 238 240 242 245 247 247 245 244 246 248 250 252 254 255 256 257 256 253 251 250 250 249 250 252 253 253 254 255 256 256 257 257 257 259 262 264
238 237 236 233 228 230 234 237 240 242 245 248 245 242 244 245 247 250 253 255 257 258 258 258 256 256 256 257 257 257 257 257 257 258 259 259 259 259 257 258 259 261
247 247 245 241 236 233 232 231 235 239 243 246 243 239 240 242 244 248 251 255 258 258 259 259 258 258 257 258 259 259 259 260 261 261 262 263 264 262 260 258 259 261
249 250 251 249 246 243 239 233 233 237 241 242 239 237 238 240 242 246 250 254 258 261 261 260 259 259 258 258 258 258 259 260 261 262 263 264 264 263 261 260 260 263
249 250 252 252 250 249 245 240 237 239 240 240 238 238 239 240 241 244 249 254 259 262 262 261 260 260 258 256 256 257 258 259 259 259 260 261 262 261 260 261 261 261
Height
3238 3239 3240 3241 3242 3243 3244 3245 3246 3247 3248 3249 3249 3250 3251 3251 3252 3253 3253 3254 3255 3256 3256 3257 3258 3258 3258 3259 3259 3259 3260 3260 3261 3261 3261 3262 3262 3262 3263 3263 3264 3264
3238 3239 3240 3241 3241 3242 3243 3245 3246 3247 3248 3249 3249 3250 3251 3251 3252 3253 3253 3254 3255 3255 3256 3256 3257 3257 3258 3258 3258 3259 3259 3259 3260 3260 3261 3261 3262 3262 3262 3263 3264 3264
3237 3239 3240 3240 3241 3242 3243 3244 3245 3246 3247 3248 3249 3250 3250 3251 3252 3252 3253 3254 3254 3255 3255 3256 3256 3256 3257 3257 3258 3258 3259 3259 3259 3260 3260 3261 3261 3261 3262 3262 3263 3263
3237 3238 3239 3240 3241 3242 3243 3244 3245 3246 3247 3248 3248 3249 3250 3250 3251 3252 3252 3253 3253 3254 3254 3255 3255 3256 3256 3256 3257 3257 3258 3258 3259 3259 3260 3260 3260 3261 3261 3261 3262 3262
3237 3238 3239 3240 3240 3241 3242 3243 3244 3245 3246 3247 3248 3248 3249 3250 3250 3251 3251 3252 3252 3253 3253 3254 3254 3255 3255 3256 3256 3256 3257 3258 3258 3259 3259 3259 3260 3260 3260 3261 3261 3261
3236 3237 3238 3239 3240 3241 3242 3243 3244 3245 3246 3246 3247 3248 3248 3249 3249 3250 3250 3251 3251 3252 3252 3253 3254 3254 3254 3255 3255 3256 3256 3257 3257 3257 3258 3258 3259 3259 3259 3260 3260 3260
3235 3236 3237 3238 3239 3240 3241 3242 3243 3244 3245 3245 3246 3247 3247 3248 3248 3249 3249 3250 3250 3251 3252 3252 3253 3253 3254 3254 3255 3255 3255 3256 3256 3256 3256 3257 3257 3258 3258 3259 3259 3259
3234 3235 3236 3237 3238 3239 3240 3241 3242 3243 3244 3245 3245 3246 3246 3247 3247 3247 3248 3248 3249 3250 3250 3251 3252 3252 3253 3253 3254 3254 3255 3255 3255 3255 3256 3256 3256 3256 3257 3257 3257 3258
3233 3234 3235 3236 3237 3238 3239 3240 3241 3242 3242 3243 3244 3245 3245 3245 3246 3246 3247 3247 3248 3248 3249 3250 3250 3251 3252 3252 3253 3253 3253 3254 3254 3255 3255 3255 3255 3255 3255 3255 3256 3256
3231 3232 3233 3235 3236 3236 3237 3238 3239 3240 3241 3242 3242 3243 3243 3244 3244 3245 3246 3246 3247 3247 3248 3249 3249 3250 3250 3251 3251 3252 3252 3253 3253 3253 3254 3254 3254 3254 3254 3254 3254 3254
3230 3231 3232 3233 3234 3235 3236 3237 3238 3238 3239 3239 3239 3240 3240 3240 3242 3243 3244 3246 3246 3247 3247 3247 3248 3249 3249 3250 3250 3250 3251 3251 3252 3252 3252 3252 3253 3253 3253 3253 3253 3253
3228 3230 3231 3232 3233 3234 3235 3235 3236 3236 3236 3237 3238 3239 3240 3240 3241 3242 3242 3244 3246 3246 3247 3247 3247 3248 3248 3249 3249 3250 3250 3250 3251 3251 3251 3251 3251 3251 3251 3251 3251 3251
3227 3228 3229 3230 3232 3232 3233 3234 3234 3234 3235 3237 3238 3239 3240 3241 3242 3242 3243 3243 3244 3245 3246 3246 3246 3246 3247 3248 3248 3249 3249 3250 3250 3250 3250 3250 3250 3249 3249 3249 3248 3248
3225 3226 3228 3229 3230 3231 3232 3233 3233 3233 3234 3236 3237 3237 3239 3240 3240 3242 3242 3243 3243 3244 3245 3245 3245 3245 3246 3246 3247 3248 3248 3248 3248 3248 3248 3248 3248 3248 3247 3247 3247 3248
3223 3225 3226 3228 3229 3230 3231 3232 3232 3232 3233 3235 3235 3236 3237 3238 3239 3240 3241 3241 3241 3242 3243 3243 3244 3244 3245 3245 3245 3246 3246 3247 3247 3247 3247 3247 3246 3246 3246 3246 3247 3248
3223 3224 3225 3226 3227 3228 3229 3230 3231 3231 3232 3233 3234 3235 3236 3236 3237 3238 3239 3239 3240 3241 3241 3242 3243 3243 3243 3244 3244 3244 3245 3245 3245 3245 3245 3245 3245 3245 3245 3245 3246 3246
3222 3223 3223 3224 3225 3227 3228 3228 3229 3230 3231 3232 3233 3234 3235 3235 3235 3237 3238 3238 3238 3240 3240 3241 3241 3241 3241 3242 3242 3242 3242 3243 3243 3243 3243 3244 3244 3244 3244 3244 3244 3245
3220 3221 3222 3222 3223 3224 3225 3226 3227 3228 3229 3230 3231 3232 3233 3233 3234 3235 3236 3236 3237 3238 3239 3239 3239 3239 3239 3240 3240 3240 3241 3240 3241 3241 3241 3241 3242 3242 3242 3242 3242 3242
3217 3218 3219 3220 3221 3222 3223 3224 3225 3226 3227 3228 3229 3230 3230 3231 3232 3233 3234 3234 3235 3236 3236 3236 3237 3237 3238 3238 3238 3239 3239 3238 3238 3239 3239 3240 3240 3240 3240 3240 3240 3240
3216 3216 3216 3216 3218 3220 3221 3222 3223 3223 3224 3225 3226 3227 3227 3228 3229 3230 3231 3232 3233 3233 3234 3234 3235 3235 3236 3236 3236 3237 3237 3236 3236 3236 3237 3237 3238 3238 3238 3238 3238 3238
3214 3216 3216 3215 3216 3218 3218 3219 3220 3221 3222 3223 3223 3224 3225 3225 3227 3228 3229 3230 3230 3231 3231 3232 3233 3233 3233 3234 3234 3234 3234 3234 3234 3234 3235 3235 3235 3236 3236 3236 3236 3236
3212 3214 3215 3213 3213 3215 3216 3217 3218 3219 3219 3220 3221 3221 3222 3223 3224 3225 3226 3227 3227 3228 3228 3229 3230 3230 3231 3231 3232 3232 3232 3232 3232 3232 3232 3232 3232 3233 3233 3233 3233 3233
3210 3211 3211 3210 3209 3211 3213 3215 3215 3216 3217 3217 3218 3219 3219 3220 3221 3222 3223 3224 3224 3225 3225 3226 3226 3227 3228 3228 3228 3229 3229 3229 3229 3229 3229 3229 3229 3230 3230 3230 3230 3230
3205 3206 3207 3209 3209 3209 3210 3211 3212 3213 3214 3214 3215 3216 3217 3218 3219 3219 3220 3221 3221 3222 3222 3222 3223 3224 3224 3225 3225 3225 3225 3225 3225 3225 3225 3225 3225 3226 3226 3226 3226 3226
3200 3201 3203 3205 3206 3206 3206 3207 3208 3210 3211 3212 3212 3213 3214 3215 3216 3216 3217 3217 3218 3218 3219 3219 3220 3220 3221 3221 3222 3222 3222 3222 3221 3221 3221 3221 3221 3221 3221 3222 3222 3222
3196 3196 3197 3198 3200 3201 3202 3204 3205 3206 3208 3209 3209 3210 3211 3212 3212 3213 3214 3214 3215 3215 3215 3216 3216 3217 3217 3217 3217 3218 3218 3218 3217 3217 3216 3216 3216 3216 3216 3217 3217 3217